Probability
35 45 94 94 97 94 94 90 90 90 87 87 81 84 81 77 77 74 65 58 48 39 32 29 23 16 16 16 10 6 3 3 0 0 0 0 0 0 0 0 0 0 0
39 55 94 97 94 94 94 90 90 90 90 90 81 81 81 77 71 68 61 52 45 32 29 29 19 16 16 10 6 3 0 0 0 0 0 0 0 0 0 0 0 0 0
45 68 87 97 94 94 94 90 90 90 90 84 81 84 77 74 71 68 55 52 39 29 29 23 16 13 13 6 0 0 0 0 0 0 0 0 0 0 0 0 0 0 0
39 55 65 97 94 94 94 90 90 90 87 84 84 81 74 71 68 55 55 39 32 26 23 19 13 13 10 3 3 0 0 0 0 0 0 0 0 0 0 0 0 0 0
35 52 68 97 94 94 90 90 90 90 87 84 77 77 71 68 58 55 42 35 32 26 13 13 13 6 3 0 0 0 0 0 0 0 0 0 0 0 0 0 0 0 0
32 48 74 90 90 94 94 90 87 87 84 81 77 77 68 61 55 52 39 35 23 16 13 13 6 3 3 0 0 0 0 0 0 0 0 0 0 0 0 0 0 0 0
29 45 65 87 87 90 90 90 87 87 81 77 74 74 68 55 52 48 42 26 16 16 13 6 6 3 0 0 0 0 0 0 0 0 0 0 0 0 0 0 0 0 0
23 39 61 87 87 87 90 87 87 84 81 71 71 71 61 48 39 35 26 16 16 13 10 6 3 0 0 0 0 0 0 0 0 0 0 0 0 0 0 0 0 0 0
19 39 52 74 84 87 84 87 81 77 71 71 71 61 52 42 39 29 19 16 13 13 6 6 0 0 0 0 0 0 0 0 0 0 0 0 0 0 0 0 0 0 0
23 35 48 55 68 71 68 65 68 68 71 71 58 39 35 29 29 26 13 13 10 6 3 0 0 0 0 0 0 0 0 0 0 0 0 0 0 0 0 0 0 0 0
19 29 42 52 52 58 58 55 52 48 48 32 26 19 10 10 6 6 6 10 6 3 3 0 0 0 0 0 0 0 0 0 0 0 0 0 0 0 0 0 0 0 0
16 26 42 48 42 39 39 39 32 32 26 23 16 10 3 6 6 6 0 0 3 0 0 0 0 0 0 0 0 0 0 0 0 0 0 0 0 0 0 0 0 0 0
16 23 35 39 42 26 29 32 26 16 19 19 13 10 3 3 0 0 0 0 0 0 0 0 0 0 0 0 0 0 0 0 0 0 0 0 0 0 0 0 0 0 0
13 10 26 35 35 19 26 23 23 10 10 10 10 10 3 3 0 0 0 0 0 0 0 0 0 0 0 0 0 0 0 0 0 0 0 0 0 0 0 0 0 0 0
6 10 16 23 35 19 19 19 10 10 6 3 6 6 3 3 0 0 0 0 0 0 0 0 0 0 0 0 0 0 0 0 0 0 0 0 0 0 0 0 0 0 0
6 10 10 19 19 10 10 10 6 6 6 3 3 3 3 0 0 0 0 0 0 0 0 0 0 0 0 0 0 0 0 0 0 0 0 0 0 0 0 0 0 0 0
6 10 10 6 16 6 10 6 3 6 3 3 3 0 3 0 0 0 0 0 0 0 0 0 0 0 0 0 0 0 0 0 0 0 0 0 0 0 0 0 0 0 0
3 6 6 6 3 3 10 3 3 3 3 3 3 0 3 0 0 0 0 0 0 0 0 0 0 0 0 0 0 0 0 0 0 0 0 0 0 0 0 0 0 0 0
0 3 3 0 3 0 6 6 3 0 3 0 3 0 0 0 0 0 0 0 0 0 0 0 0 0 0 0 0 0 0 0 0 0 0 0 0 0 0 0 0 0 0
0 3 3 0 0 0 3 6 0 0 0 3 3 0 0 0 0 0 0 0 0 0 0 0 0 0 0 0 0 0 0 0 0 0 0 0 0 0 0 0 0 0 0
0 3 3 0 0 0 0 0 0 0 0 3 3 0 0 0 0 0 0 0 0 0 0 0 0 0 0 0 0 0 0 0 0 0 0 0 0 0 0 0 0 0 0
0 3 3 0 0 0 0 0 0 0 0 0 0 0 0 0 0 0 0 0 0 0 0 0 0 0 0 0 0 0 0 0 0 0 0 0 0 0 0 0 0 0 0
0 0 0 0 0 0 0 0 0 0 0 0 0 0 0 0 0 0 0 0 0 0 0 0 0 0 0 0 0 0 0 0 0 0 0 0 0 0 0 0 0 0 0
0 0 0 0 0 0 0 0 0 0 0 0 0 0 0 0 0 0 0 0 0 0 0 0 0 0 0 0 0 0 0 0 0 0 0 0 0 0 0 0 0 0 0
0 0 0 0 0 0 0 0 0 0 0 0 0 0 0 0 0 0 0 0 0 0 0 0 0 0 0 0 0 0 0 0 0 0 0 0 0 0 0 0 0 0 0
0 3 0 0 0 0 0 0 0 0 0 0 0 0 0 0 0 0 0 0 0 0 0 0 0 0 0 0 0 0 0 0 0 0 0 0 0 0 0 0 0 0 0
Height
5843 5844 5846 5848 5851 5853 5855 5857 5859 5860 5862 5864 5865 5867 5868 5869 5870 5871 5872 5872 5873 5874 5874 5875 5875 5875 5875 5875 5875 5874 5874 5874 5873 5873 5873 5872 5872 5871 5870 5869 5868 5867 5866
5839 5840 5842 5844 5846 5849 5851 5853 5855 5857 5859 5861 5862 5864 5865 5867 5868 5869 5870 5871 5872 5872 5873 5874 5874 5874 5874 5874 5874 5874 5874 5873 5873 5873 5872 5872 5871 5870 5870 5869 5868 5867 5866
5833 5836 5837 5839 5842 5844 5846 5849 5851 5853 5855 5857 5859 5861 5862 5864 5866 5867 5868 5869 5870 5871 5872 5872 5873 5873 5873 5873 5873 5873 5873 5873 5872 5872 5872 5871 5871 5870 5869 5868 5867 5866 5865
5827 5830 5832 5834 5837 5839 5841 5844 5846 5849 5851 5853 5856 5858 5859 5861 5863 5864 5866 5867 5868 5869 5870 5871 5871 5872 5872 5872 5872 5872 5872 5872 5871 5871 5871 5870 5870 5869 5868 5867 5866 5865 5864
5821 5824 5826 5828 5831 5834 5836 5839 5841 5844 5847 5849 5852 5854 5856 5858 5859 5861 5863 5864 5866 5867 5868 5869 5870 5870 5870 5871 5871 5871 5871 5871 5870 5870 5870 5869 5869 5868 5867 5866 5865 5864 5862
5813 5817 5820 5822 5825 5828 5831 5833 5836 5839 5842 5844 5847 5849 5852 5854 5856 5858 5860 5862 5863 5864 5866 5867 5867 5868 5868 5869 5869 5869 5869 5869 5869 5869 5868 5868 5867 5866 5865 5864 5863 5862 5861
5805 5809 5812 5815 5818 5821 5824 5827 5830 5833 5836 5839 5842 5845 5847 5849 5852 5854 5856 5858 5860 5861 5863 5864 5865 5866 5866 5867 5867 5867 5867 5867 5867 5867 5867 5866 5866 5865 5864 5863 5862 5860 5859
5796 5800 5804 5808 5811 5814 5817 5821 5824 5827 5830 5833 5836 5839 5842 5845 5847 5850 5852 5854 5856 5858 5860 5861 5862 5863 5864 5864 5865 5865 5865 5865 5865 5865 5865 5864 5864 5863 5862 5861 5860 5858 5857
5785 5790 5795 5799 5802 5806 5810 5813 5817 5820 5824 5827 5830 5833 5836 5839 5842 5845 5848 5850 5852 5854 5856 5858 5859 5860 5861 5862 5862 5863 5863 5863 5863 5863 5862 5862 5861 5861 5860 5859 5857 5856 5855
5773 5779 5784 5789 5793 5798 5801 5805 5809 5813 5817 5820 5824 5827 5830 5833 5836 5840 5843 5845 5848 5850 5852 5854 5856 5857 5858 5859 5860 5860 5860 5861 5861 5860 5860 5859 5859 5858 5857 5856 5855 5853 5852
5761 5766 5773 5778 5783 5788 5792 5797 5801 5804 5808 5812 5816 5820 5823 5827 5831 5834 5838 5840 5843 5845 5848 5850 5852 5853 5855 5856 5857 5857 5858 5858 5858 5857 5857 5857 5856 5855 5854 5853 5852 5850 5849
5747 5753 5759 5765 5771 5777 5782 5787 5792 5796 5800 5804 5809 5813 5817 5821 5825 5829 5832 5835 5838 5841 5843 5846 5848 5849 5851 5852 5853 5854 5854 5855 5855 5854 5854 5854 5853 5852 5851 5850 5849 5847 5846
5732 5738 5745 5752 5759 5765 5771 5777 5782 5787 5791 5796 5801 5805 5810 5814 5818 5822 5826 5829 5833 5836 5839 5841 5843 5845 5847 5848 5849 5850 5851 5851 5851 5851 5851 5850 5850 5849 5848 5847 5845 5844 5842
5715 5723 5730 5737 5744 5752 5759 5765 5771 5777 5782 5787 5793 5797 5802 5807 5812 5816 5820 5824 5827 5831 5834 5836 5838 5840 5842 5843 5845 5846 5847 5847 5847 5847 5847 5846 5846 5845 5844 5843 5841 5840 5838
5697 5706 5714 5722 5729 5738 5745 5753 5759 5766 5772 5778 5784 5789 5794 5800 5805 5809 5813 5817 5821 5825 5828 5830 5833 5835 5837 5839 5840 5841 5842 5843 5843 5843 5843 5842 5842 5841 5840 5838 5837 5835 5833
5677 5687 5697 5705 5714 5723 5731 5740 5747 5755 5761 5768 5774 5780 5786 5791 5796 5801 5806 5811 5815 5818 5822 5825 5827 5830 5832 5834 5835 5837 5838 5838 5839 5839 5839 5838 5837 5837 5835 5834 5833 5831 5829
5659 5668 5679 5688 5698 5707 5717 5726 5735 5743 5751 5758 5764 5770 5777 5782 5788 5793 5799 5803 5808 5812 5815 5818 5821 5824 5826 5828 5830 5831 5832 5833 5834 5834 5834 5833 5833 5832 5831 5829 5828 5826 5824
5641 5651 5661 5671 5681 5692 5703 5713 5722 5730 5739 5747 5754 5760 5768 5774 5779 5785 5791 5796 5800 5805 5808 5812 5815 5818 5820 5822 5824 5826 5827 5828 5829 5829 5829 5828 5828 5827 5826 5824 5823 5821 5818
5625 5634 5644 5655 5666 5678 5689 5700 5709 5718 5727 5736 5743 5751 5758 5765 5770 5776 5782 5788 5793 5797 5801 5805 5809 5811 5814 5816 5818 5820 5821 5822 5823 5823 5823 5823 5822 5821 5820 5819 5817 5815 5813
5609 5618 5628 5639 5652 5664 5675 5686 5695 5704 5714 5724 5732 5740 5749 5755 5761 5768 5774 5780 5785 5790 5794 5798 5802 5805 5807 5810 5812 5814 5815 5816 5817 5817 5818 5817 5817 5816 5814 5813 5811 5809 5806
5596 5604 5614 5626 5638 5651 5662 5672 5682 5692 5702 5713 5722 5731 5739 5746 5752 5760 5766 5772 5777 5782 5786 5790 5794 5798 5801 5803 5806 5807 5809 5810 5811 5811 5811 5811 5810 5809 5808 5807 5805 5803 5800
5584 5593 5602 5613 5626 5638 5649 5660 5669 5680 5691 5702 5712 5720 5727 5735 5743 5750 5757 5763 5769 5774 5778 5783 5787 5791 5794 5797 5799 5801 5802 5804 5804 5805 5805 5805 5804 5803 5802 5800 5798 5796 5794
5574 5582 5591 5603 5615 5626 5637 5647 5658 5668 5679 5690 5700 5709 5717 5725 5734 5741 5747 5754 5760 5765 5770 5775 5779 5783 5787 5790 5792 5794 5796 5797 5798 5799 5798 5798 5797 5796 5795 5793 5791 5789 5787
5564 5572 5582 5593 5603 5614 5624 5634 5646 5657 5669 5680 5689 5699 5708 5717 5725 5732 5738 5745 5751 5757 5762 5767 5771 5776 5779 5782 5785 5787 5789 5791 5792 5792 5792 5791 5790 5789 5788 5786 5784 5782 5780
5556 5563 5573 5583 5594 5604 5614 5625 5636 5648 5659 5670 5679 5688 5698 5706 5714 5722 5728 5735 5742 5748 5753 5758 5763 5768 5771 5775 5777 5779 5781 5783 5784 5785 5785 5784 5783 5782 5781 5779 5777 5775 5772
5548 5556 5565 5575 5586 5595 5606 5616 5626 5638 5649 5659 5669 5678 5687 5696 5704 5713 5720 5727 5734 5740 5745 5750 5755 5759 5763 5767 5769 5772 5774 5775 5776 5777 5777 5777 5776 5775 5773 5772 5770 5767 5765
Wind_Speed
25 27 27 27 27 26 25 25 25 24 23 22 21 21 20 18 16 15 14 13 12 10 9 8 7 6 5 5 4 4 3 3 3 4 4 5 5 6 7 7 8 8 9
27 28 29 29 29 28 27 27 27 26 25 24 23 23 22 20 18 17 16 15 14 12 11 10 9 8 7 6 5 5 4 4 4 4 5 5 6 6 7 7 8 8 9
29 30 31 31 30 30 30 29 29 28 27 26 25 24 23 22 21 19 18 16 15 14 13 12 11 10 9 8 7 6 6 5 4 5 5 6 6 6 7 8 8 8 9
32 32 33 33 32 32 32 31 31 31 30 29 27 26 25 24 23 22 20 18 17 16 14 13 12 11 10 9 8 8 7 6 6 6 6 6 7 7 8 8 8 9 10
35 35 35 35 35 34 34 33 33 33 32 31 30 28 27 26 25 24 22 21 19 18 16 15 14 13 12 11 10 9 8 8 7 7 7 7 8 8 8 9 9 10 11
38 38 38 38 37 37 36 35 35 35 34 33 32 31 30 29 27 26 24 23 21 20 18 17 16 15 14 13 12 11 10 10 9 8 8 9 9 9 10 10 11 11 12
42 41 41 40 40 39 39 38 37 37 36 35 34 33 32 31 29 28 26 25 23 22 20 19 17 16 15 14 13 12 12 11 11 10 10 10 10 11 11 12 12 13 14
46 44 44 44 43 42 42 41 40 39 39 38 37 35 34 33 32 30 28 27 25 23 22 21 19 18 17 16 15 14 13 13 12 12 11 11 12 12 13 13 14 14 15
49 48 47 47 46 45 44 43 43 42 41 40 39 38 37 35 34 32 30 29 27 25 24 22 21 20 19 18 17 16 14 14 14 13 13 13 13 14 14 15 15 15 16
53 51 50 49 49 48 47 46 45 45 44 43 41 40 39 37 36 34 32 31 29 27 25 24 23 22 21 19 18 17 16 16 15 15 15 15 15 15 16 16 16 17 17
56 54 53 52 52 51 50 49 48 48 47 46 44 43 41 40 38 36 34 33 31 29 27 26 25 23 22 21 20 19 18 17 17 16 16 17 17 17 17 18 18 18 19
58 58 56 55 54 54 53 52 51 50 49 48 46 45 44 42 40 38 36 34 33 31 29 28 27 25 24 23 22 21 20 19 18 18 18 18 18 18 19 19 19 19 20
61 60 59 58 57 57 56 55 54 53 52 50 48 47 45 44 42 40 38 36 35 33 31 29 29 27 26 25 24 23 21 20 20 20 19 19 19 20 20 20 21 21 22
63 62 62 60 60 59 59 58 56 55 54 52 51 49 47 46 44 42 40 38 36 34 33 31 30 29 28 27 26 24 23 22 22 21 21 21 21 21 21 22 22 22 23
65 64 63 63 62 62 61 60 59 58 56 54 52 51 49 47 45 43 42 39 38 36 35 33 32 30 29 28 27 26 25 24 24 23 23 23 22 23 23 23 24 24 25
66 65 64 64 64 64 63 62 61 60 58 56 54 52 51 49 47 45 43 41 39 38 37 35 34 32 31 30 29 28 27 26 25 25 25 24 24 24 25 25 26 26 27
64 64 65 65 66 66 64 64 64 62 60 58 55 54 52 50 49 47 45 43 41 39 38 37 35 33 32 31 30 29 28 27 27 27 26 26 26 26 27 27 27 28 29
61 62 63 65 66 67 65 65 65 64 63 60 58 55 53 52 49 47 46 44 43 41 40 38 36 35 34 32 31 31 30 29 28 28 27 27 27 28 28 28 29 30 30
58 60 62 65 66 67 66 66 65 66 65 62 61 58 55 54 51 48 47 45 44 42 41 39 37 36 35 33 32 32 31 30 30 29 28 28 29 29 29 30 31 31 32
56 58 60 64 66 67 66 65 66 67 66 65 62 59 57 55 52 50 48 47 45 43 42 40 38 37 36 34 33 32 32 31 30 30 29 30 30 30 31 31 32 33 33
54 55 58 62 65 66 66 66 67 67 66 65 63 60 58 57 54 51 49 48 46 45 43 41 39 38 36 35 34 33 32 31 31 31 31 31 31 31 32 32 33 34 35
53 54 57 61 64 65 66 67 68 69 67 65 63 62 60 58 55 52 51 50 48 46 44 42 40 39 37 36 35 34 33 32 32 32 32 32 32 33 33 33 34 35 36
51 54 56 59 62 65 66 66 67 69 67 65 64 63 60 58 56 53 51 50 49 47 45 43 42 40 38 37 36 35 34 33 33 33 33 33 33 33 34 34 35 35 37
49 52 57 59 61 64 65 66 66 66 66 65 63 62 60 58 57 55 53 51 49 48 46 44 42 41 40 38 37 36 35 34 34 34 34 34 34 34 34 35 36 36 37
47 50 56 58 61 63 64 64 65 66 66 65 63 63 60 58 56 55 53 51 50 48 46 45 43 42 40 39 38 37 36 35 35 35 34 34 34 34 35 36 36 37 38
45 49 53 57 60 61 63 63 63 66 67 65 64 60 59 58 56 55 53 51 49 48 47 45 44 43 42 41 40 39 37 36 36 35 35 34 34 35 35 35 37 37 38
Wind_Direction
241 241 241 239 238 236 235 234 233 233 232 230 230 231 231 232 233 236 238 239 242 245 247 248 247 249 253 259 265 269 284 296 311 326 339 344 344 346 350 350 350 351 350
244 241 241 239 238 237 236 234 234 234 233 232 232 232 232 232 233 235 238 240 243 245 247 246 245 248 252 258 263 265 276 288 302 317 327 332 336 340 343 344 345 345 345
246 243 241 240 238 237 237 236 234 234 234 233 233 233 232 233 234 236 239 241 242 245 247 246 245 247 251 257 261 263 269 279 293 307 313 318 326 331 335 337 338 338 338
247 244 242 241 239 237 237 236 235 235 234 234 233 233 233 233 235 237 240 242 242 244 247 246 245 246 249 255 259 263 268 276 286 296 302 307 314 320 325 329 329 329 331
247 244 243 242 240 238 237 236 235 235 235 234 234 234 234 234 235 237 240 242 242 243 246 246 246 246 249 254 258 264 268 275 282 287 293 300 305 311 317 320 322 322 325
247 244 243 243 241 239 237 235 235 235 235 235 234 234 235 236 236 237 239 241 241 242 244 245 246 247 249 254 258 264 268 273 277 282 287 294 300 304 308 311 314 317 320
248 244 242 242 241 239 238 236 235 235 235 235 235 235 236 237 237 238 238 240 241 242 243 244 246 248 250 254 259 264 268 270 274 278 283 289 296 298 301 306 309 312 315
247 245 241 241 240 239 238 237 235 235 235 235 235 235 236 237 237 238 238 238 240 242 243 244 246 248 251 254 258 263 267 269 272 276 281 287 293 295 298 302 305 307 311
247 245 241 240 239 238 237 237 236 235 235 235 235 235 235 236 237 238 238 238 239 241 242 244 246 248 251 254 258 262 266 268 271 275 279 284 289 294 297 300 302 304 308
246 244 242 239 238 238 237 236 236 235 235 235 235 235 235 235 236 237 237 238 239 240 242 243 246 249 251 255 258 262 266 269 271 274 277 281 286 291 295 299 300 302 306
245 244 242 239 237 237 237 236 235 235 234 234 235 234 235 235 236 237 237 238 239 240 242 243 246 249 251 255 258 262 265 268 272 274 276 280 284 289 293 296 298 300 303
245 243 241 239 237 235 235 235 235 234 234 234 234 235 235 235 235 236 237 237 238 240 241 244 246 249 251 254 258 261 264 267 271 274 276 279 284 288 291 294 296 298 301
243 242 240 238 236 235 234 233 233 234 233 233 233 234 235 235 235 236 236 237 238 240 241 244 246 248 250 253 256 259 263 266 270 273 275 279 283 288 291 293 295 297 300
242 240 239 236 235 234 233 232 232 232 232 232 233 233 234 235 235 236 236 237 238 239 241 243 246 248 250 253 256 259 262 265 269 273 275 278 283 287 290 293 294 296 299
241 239 237 235 233 232 231 230 230 230 231 231 232 232 233 234 235 235 235 236 238 239 241 243 246 248 250 253 256 258 262 265 268 272 275 277 282 285 289 292 294 296 298
241 238 236 233 231 229 228 227 228 228 229 229 230 231 232 233 234 235 235 236 238 239 241 243 245 247 250 253 256 259 262 264 267 271 274 277 281 284 287 291 293 295 297
239 236 234 231 228 226 225 225 226 226 227 228 228 230 231 232 233 234 234 235 237 239 241 242 244 247 250 252 256 259 261 264 267 270 273 276 280 283 286 290 292 294 297
236 234 231 228 226 224 223 223 224 224 225 226 227 228 230 231 232 232 234 235 237 239 241 242 244 247 249 252 255 258 261 264 267 270 273 276 279 283 285 289 292 294 296
234 231 229 225 223 222 221 221 222 223 223 224 226 227 228 230 232 233 234 234 236 239 241 243 245 247 249 252 255 258 260 263 266 270 273 276 279 282 285 288 291 294 296
231 228 226 222 220 220 219 219 221 221 221 223 225 226 227 229 232 232 233 234 236 238 241 242 244 246 249 252 255 257 260 263 266 270 274 276 279 282 285 287 291 293 296
229 226 223 219 218 218 217 218 218 219 220 222 224 225 227 229 230 232 234 234 236 238 241 243 244 246 249 252 254 257 260 263 267 271 274 277 279 282 285 287 290 292 295
227 223 220 217 215 216 216 217 218 219 220 221 224 225 227 228 230 232 233 234 236 238 240 242 244 246 249 251 254 257 260 263 266 270 274 277 279 282 285 287 289 292 295
225 221 218 215 214 214 215 216 217 218 218 219 221 224 226 228 229 231 233 234 236 238 240 242 243 245 248 251 254 257 260 263 266 270 274 277 279 281 284 287 289 292 294
224 219 216 214 214 213 215 215 216 217 218 219 222 225 226 228 229 231 233 235 236 237 239 241 243 245 248 250 254 257 260 263 267 271 274 277 279 281 284 287 289 292 294
224 218 216 214 214 214 214 215 217 217 218 219 221 223 225 227 229 231 232 233 234 236 239 240 242 244 247 250 253 257 260 263 267 271 274 277 279 282 285 287 289 292 295
223 218 216 214 213 213 213 215 217 216 217 219 220 221 224 227 229 230 231 233 234 236 238 241 242 244 247 250 253 257 260 263 267 271 274 277 280 283 286 287 290 292 295